Flag for United Kingdom Weather past 2 weeks in Coventry, England, United Kingdom

Now
59 °F

Partly sunny.


Feels Like: 57 °F
Forecast: 59 / 79 °F
Wind: 12 mph from Northeast

Location: Brize Norton

Current Time: Jul 23, 2014 at 9:44:13 AM

Latest Report: Jul 23, 2014 at 6:50 AM


Visibility: N/A

Pressure: 30.18 "Hg

Humidity: 94%

Dew point: 57 °F

Location of CoventryLocation

Historic Weather in Coventry — Graph

°F

Coventry temperature yesterday

Maximum temperature yesterday: 81 °F (at 3:50 PM)
Minimum temperature yesterday: 59 °F (at 3:50 AM)
Average temperature yesterday: 69 °F

Past Weeks' High & Low Weather Summary

 TemperatureHumidityPressure
High81 °F (Jul 17, 3:50 PM)100% (Jul 8, 6:50 AM)30.21 "Hg (Jul 8, 6:50 AM)
Low52 °F (Jul 8, 6:50 AM)39% (Jul 22, 4:50 PM)29.71 "Hg (Jul 19, 4:50 PM)
Average66 °F71%30.00 "Hg
* Reported Jul 8 6:50 AM — Jul 23 6:50 AM, Coventry, Weather by CustomWeather, © 2014

Note: Actual official high and low records may vary slightly from our data, if they occured in-between our weather recording intervals... More about our weather records

Advertising

Coventry weather history for previous 24 hours

 ConditionsComfort  
Time TempWeatherWind HumidityBarometerVisibility
6:50 AM
Jul 23
59 °FPartly sunny.12 mph94%30.18 "HgN/A
5:50 AM59 °FPassing clouds.9 mph94%30.18 "Hg5 mi
4:50 AM59 °FPassing clouds.9 mph94%30.21 "Hg5 mi
3:50 AM59 °FPassing clouds.8 mph94%30.21 "Hg5 mi
2:50 AM61 °FPassing clouds.7 mph88%30.21 "Hg5 mi
1:50 AM61 °FPassing clouds.5 mph88%30.21 "HgN/A
12:50 AM61 °FPartly cloudy.5 mph94%30.21 "HgN/A
5:50 PM
Jul 22
79 °FSunny.9 mph42%30.18 "Hg10 mi
4:50 PM79 °FSunny.10 mph39%30.18 "Hg10 mi
3:50 PM81 °FSunny.9 mph42%30.18 "Hg10 mi
2:50 PM79 °FSunny.10 mph42%30.21 "Hg10 mi
1:50 PM77 °FPassing clouds.10 mph47%30.21 "HgN/A
12:50 PM75 °FPassing clouds.7 mph50%30.21 "HgN/A
11:50 AM75 °FScattered clouds.7 mph54%30.21 "HgN/A
10:50 AM73 °FPassing clouds.8 mph57%30.21 "HgN/A
9:50 AM73 °FPassing clouds.6 mph61%30.21 "HgN/A
Weather by CustomWeather, © 2014

See weather overviewHow to use our weather pages